Date,TemperatureHighF,TemperatureAvgF,TemperatureLowF,DewpointHighF,DewpointAvgF,DewpointLowF,HumidityHigh,HumidityAvg,HumidityLow,PressureMaxIn,PressureMinIn,WindSpeedMaxMPH,WindSpeedAvgMPH,GustSpeedMaxMPH,PrecipitationSumIn
2013-1-1,39,35,31,36,33,29,94,92,86,30.51,30.36,7,2,8,0.01
2013-1-2,43,34,29,38,31,27,92,88,81,30.36,30.20,6,2,7,0.00
2013-1-3,41,34,27,37,30,25,94,88,76,30.20,30.09,10,2,11,0.02
2013-1-4,45,42,39,43,39,37,93,90,85,30.31,30.13,8,1,11,0.01
2013-1-5,45,42,39,41,39,36,94,89,83,30.18,30.06,15,3,18,0.17
2013-1-6,45,42,36,42,39,34,93,90,87,30.14,30.00,11,3,13,0.18
2013-1-7,49,49,49,45,45,45,88,88,87,29.92,29.91,12,8,12,0.00
2013-1-8,48,45,40,47,43,38,94,93,91,29.95,29.65,13,4,14,0.93
2013-1-9,46,42,34,45,38,31,94,88,83,29.92,29.65,13,3,13,0.04
2013-1-10,39,36,28,37,33,26,92,90,86,30.13,29.92,6,1,8,0.16
2013-1-11,36,30,26,28,24,22,92,80,63,30.32,30.13,10,2,10,0.00
2013-1-12,34,28,24,28,24,21,91,86,73,30.43,30.31,6,2,7,0.00
2013-1-13,37,30,23,34,27,21,93,88,84,30.48,30.42,4,1,6,0.01
2013-1-14,36,35,33,33,32,30,92,89,87,30.57,30.45,7,1,8,0.02
2013-1-15,41,36,32,38,33,30,94,90,84,30.72,30.57,4,1,4,0.00
2013-1-16,41,36,33,37,33,30,91,89,81,30.66,30.52,6,1,6,0.00
2013-1-17,43,34,29,39,32,27,92,89,84,30.53,30.28,5,2,6,0.01
2013-1-18,42,37,31,40,34,29,94,91,87,30.34,30.26,5,1,6,0.01
2013-1-19,41,37,35,38,35,32,93,91,87,30.39,30.34,10,2,10,0.00
2013-1-20,42,38,36,39,36,35,94,92,86,30.40,30.27,16,4,16,0.01
2013-1-21,42,36,33,38,34,31,94,91,82,30.27,30.13,9,2,11,0.00
2013-1-22,42,37,33,38,34,31,93,90,86,30.14,29.91,4,1,5,0.00
2013-1-23,45,41,37,42,38,34,93,91,89,30.10,29.81,7,2,7,0.25
2013-1-24,44,40,34,41,38,32,94,89,81,30.18,29.99,10,3,15,0.05
2013-1-25,49,42,36,46,39,34,94,90,80,30.04,29.88,12,2,12,0.02
2013-1-26,45,42,38,42,39,36,93,90,85,30.01,29.84,11,2,13,0.13
2013-1-27,41,39,35,40,37,33,95,93,92,30.02,29.96,6,2,7,0.30
2013-1-28,42,39,36,41,37,34,95,94,92,30.05,29.96,4,1,5,0.06
2013-1-29,45,42,38,44,40,36,95,94,93,30.30,30.04,7,1,8,0.09
2013-1-30,51,45,44,48,44,42,95,93,88,30.37,30.30,6,1,8,0.03
2013-1-31,48,45,40,46,43,38,95,93,93,30.36,30.29,10,2,13,0.06
2013-2-1,49,44,40,46,42,38,95,93,88,30.44,30.33,8,1,8,0.00
2013-2-2,46,42,40,43,40,38,94,92,86,30.41,30.24,6,2,9,0.00
2013-2-3,46,43,40,44,41,38,93,92,89,30.30,30.17,7,2,7,0.11
2013-2-4,47,44,40,44,41,38,93,91,87,30.18,29.83,8,2,9,0.01
2013-2-5,50,45,40,45,42,38,93,88,83,29.89,29.77,12,4,15,0.04
2013-2-6,47,45,42,42,40,39,91,86,73,29.99,29.74,23,5,23,0.02
2013-2-7,50,42,34,42,37,30,89,81,66,30.19,29.73,15,4,24,0.00
2013-2-8,45,39,31,42,36,28,93,89,84,30.30,30.18,4,1,5,0.03
2013-2-9,45,40,37,42,38,34,92,90,88,30.34,30.25,3,1,4,0.01
2013-2-10,47,39,30,44,36,28,95,89,83,30.38,30.32,5,1,5,0.01
2013-2-11,45,42,40,43,40,37,92,91,88,30.34,30.30,7,2,8,0.03
2013-2-12,48,46,43,46,43,41,93,90,85,30.39,30.24,10,3,12,0.00
2013-2-13,52,44,38,46,40,35,91,85,77,30.47,30.26,8,2,16,0.00
2013-2-14,46,44,40,44,41,37,92,91,87,30.57,30.47,4,1,7,0.18
2013-2-15,48,44,42,44,41,39,93,90,82,30.57,30.17,8,2,10,0.00
2013-2-16,50,45,39,45,41,35,93,85,75,30.17,30.10,12,3,15,0.02
2013-2-17,47,41,35,42,37,32,91,86,78,30.24,30.10,10,2,10,0.02
2013-2-18,46,41,34,41,36,32,92,85,78,30.10,29.75,10,3,12,0.01
2013-2-19,47,40,32,40,35,29,90,82,73,29.99,29.74,6,2,11,0.00
2013-2-20,45,39,30,43,36,28,93,90,87,30.02,29.99,8,2,10,0.03
2013-2-21,47,42,40,42,39,37,91,88,83,30.04,29.98,11,3,13,0.12
2013-2-22,47,42,38,43,38,34,91,87,75,30.02,29.63,20,6,20,0.31
2013-2-23,52,42,35,43,37,32,93,83,70,30.32,29.83,8,2,10,0.00
2013-2-24,46,43,40,40,38,36,87,81,77,30.35,29.86,21,6,24,0.00
2013-2-25,51,44,36,39,37,30,89,76,63,30.27,29.82,22,6,25,0.09
2013-2-26,46,42,34,39,36,30,89,80,70,30.32,30.14,19,4,19,0.04
2013-2-27,50,42,37,43,38,34,90,83,71,30.31,30.16,8,2,9,0.00
2013-2-28,49,44,37,47,41,34,92,90,87,30.27,30.17,16,2,16,0.43
2013-3-1,54,50,48,50,47,45,93,91,85,30.28,30.22,14,4,16,0.31
2013-3-2,55,47,35,52,44,32,92,89,84,30.23,30.03,9,2,13,0.11
2013-3-3,48,38,31,42,34,28,93,84,71,30.30,30.16,8,2,9,0.02
2013-3-4,47,38,29,40,34,27,93,85,72,30.30,29.96,7,2,8,0.01
2013-3-5,49,43,36,38,35,31,89,75,63,29.95,29.76,8,2,8,0.08
2013-3-6,44,42,41,40,39,38,90,88,84,29.88,29.63,8,2,10,0.19
2013-3-7,50,42,33,45,39,31,92,88,81,30.11,29.88,6,2,7,0.11
2013-3-8,49,40,32,44,37,30,94,87,76,30.24,30.08,8,2,9,0.01
2013-3-9,52,40,31,45,36,29,94,86,75,30.49,30.24,9,2,9,0.00
2013-3-10,48,43,37,43,40,35,91,88,83,30.48,30.42,6,1,7,0.01
2013-3-11,53,45,38,46,41,35,91,85,72,30.44,30.10,8,2,10,0.13
2013-3-12,53,49,46,50,47,43,92,91,90,30.11,29.97,13,5,15,0.33
2013-3-13,52,50,49,49,48,47,93,91,90,30.16,30.04,10,4,12,0.11
2013-3-14,54,50,47,50,47,45,94,90,83,30.10,29.99,7,2,9,0.20
2013-3-15,58,51,46,52,47,43,94,87,75,30.21,30.12,9,2,10,0.07
2013-3-16,52,45,38,48,40,33,93,86,71,30.12,29.85,13,3,14,0.07
2013-3-17,51,40,32,40,34,29,91,78,63,30.15,29.93,12,3,13,0.00
2013-3-18,53,42,33,40,35,28,90,77,57,30.24,30.05,15,3,15,0.26
2013-3-19,52,42,32,41,34,28,89,77,54,30.22,29.54,19,4,19,0.02
2013-3-20,53,47,38,48,40,32,90,78,66,29.96,29.30,23,8,24,0.09
2013-3-21,51,41,36,40,34,31,85,77,65,30.19,29.96,11,4,13,0.11
2013-3-22,50,40,30,38,31,26,84,72,54,30.37,30.19,13,3,14,0.01
2013-3-23,50,39,30,38,32,26,87,75,56,30.39,30.30,8,2,8,0.02
2013-3-24,53,41,31,40,33,26,88,74,50,30.30,30.14,8,2,8,0.00
2013-3-25,56,45,34,42,36,30,88,71,50,30.15,29.98,7,2,9,0.00
2013-3-26,58,47,37,46,38,30,84,73,60,30.04,29.98,6,2,7,0.00
2013-3-27,59,47,36,46,40,33,89,77,59,30.01,29.96,10,2,10,0.00
2013-3-28,61,49,37,50,42,34,91,79,64,30.15,30.01,6,2,6,0.00
2013-3-29,62,49,39,52,43,35,91,81,65,30.28,30.15,5,2,6,0.00
2013-3-30,58,48,37,48,41,34,92,78,61,30.28,30.11,14,2,14,0.00
2013-3-31,62,52,43,47,42,35,88,70,48,30.11,29.93,11,3,11,0.00
2013-4-1,58,48,39,49,42,34,88,80,72,30.13,29.97,10,2,13,0.00
2013-4-2,58,50,45,49,44,40,86,79,67,30.22,30.13,6,2,7,0.00
2013-4-3,60,52,46,52,45,41,87,77,64,30.20,29.98,6,1,8,0.00
2013-4-4,54,51,48,51,46,43,91,86,77,29.98,29.59,9,3,14,0.33
2013-4-5,63,53,48,55,48,44,90,84,71,29.84,29.64,12,3,14,0.08
2013-4-6,61,51,44,46,43,39,85,74,57,29.90,29.62,18,5,21,0.02
2013-4-7,55,46,42,49,42,39,89,85,78,29.86,29.57,8,2,13,0.43
2013-4-8,58,49,44,51,44,39,91,83,71,30.25,29.86,8,2,9,0.00
2013-4-9,53,48,42,46,43,38,88,82,75,30.35,30.13,9,2,9,0.00
2013-4-10,57,50,44,50,45,39,90,81,72,30.21,29.87,15,5,17,0.00
2013-4-11,58,47,37,46,39,32,90,76,58,30.30,30.17,9,2,10,0.00
2013-4-12,46,42,35,40,37,31,88,85,80,30.17,29.66,15,2,15,0.00
2013-4-13,54,41,33,48,37,29,90,84,72,29.98,29.71,12,3,12,0.00
2013-4-14,55,44,36,47,39,31,91,81,62,30.01,29.93,7,2,7,0.00
2013-4-15,56,45,36,45,39,32,90,79,63,30.18,29.93,7,2,10,0.00
2013-4-16,59,46,34,42,35,29,90,68,44,30.38,30.18,8,2,8,0.00
2013-4-17,60,49,37,47,39,29,82,70,54,30.45,30.38,12,3,13,0.00
2013-4-18,52,48,44,46,42,38,91,83,72,30.44,30.17,11,3,13,0.00
2013-4-19,62,53,47,55,48,43,91,85,76,30.17,30.06,7,2,10,0.00
2013-4-20,63,52,45,51,45,39,89,76,61,30.25,30.16,14,3,14,0.00
2013-4-21,54,47,37,45,40,32,86,76,63,30.40,30.22,12,2,13,0.00
2013-4-22,59,47,37,39,33,25,87,61,31,30.57,30.40,8,3,9,0.00
2013-4-23,58,47,34,46,36,26,81,66,54,30.43,30.29,7,2,8,0.00
2013-4-24,68,52,37,49,40,33,87,66,44,30.33,30.06,7,2,7,0.00
2013-4-25,68,54,39,50,43,34,84,67,48,30.15,30.05,7,2,9,0.00
2013-4-26,63,52,41,50,43,36,88,73,52,30.27,30.14,10,2,10,0.00
2013-4-27,55,51,46,48,44,41,83,79,75,30.21,30.12,7,2,9,0.00
2013-4-28,59,50,40,47,41,35,86,73,56,30.20,29.92,12,3,13,0.00
2013-4-29,56,48,39,42,38,35,86,71,50,30.14,29.92,9,3,10,0.00
2013-4-30,57,48,36,41,36,29,84,65,48,30.44,30.14,13,3,13,0.00
2013-5-1,62,48,33,46,36,28,88,65,42,30.61,30.44,8,2,8,0.00
2013-5-2,62,51,38,46,39,31,80,65,52,30.57,30.42,10,2,12,0.00
2013-5-3,65,56,46,50,45,39,83,69,54,30.44,30.27,11,3,13,0.00
2013-5-4,70,60,52,51,47,41,84,62,44,30.29,30.05,14,5,14,0.00
2013-5-5,80,67,55,52,48,43,72,53,36,30.04,29.82,12,3,12,0.00
2013-5-6,81,65,49,55,49,42,81,58,36,29.89,29.78,6,2,7,0.00
2013-5-7,68,57,46,54,48,41,84,72,58,30.00,29.82,10,2,11,0.00
2013-5-8,64,56,49,53,48,43,85,76,66,30.17,30.00,9,2,10,0.00
2013-5-9,69,56,44,55,48,40,89,74,59,30.24,30.14,8,3,9,0.00
2013-5-10,74,58,44,59,49,40,90,73,58,30.23,30.14,7,2,8,0.00
2013-5-11,73,60,48,56,50,43,84,70,53,30.17,30.02,9,2,10,0.00
2013-5-12,66,60,55,60,55,49,89,84,76,30.09,30.01,7,2,9,0.00
2013-5-13,66,56,47,57,50,42,90,81,70,30.19,29.92,14,3,22,0.00
2013-5-14,65,55,47,52,45,41,86,69,50,30.24,30.13,8,3,10,0.00
2013-5-15,67,56,46,52,46,40,85,72,53,30.14,30.03,9,2,9,0.00
2013-5-16,67,57,48,58,50,44,88,79,63,30.03,29.91,8,2,8,0.00
2013-5-17,63,54,46,55,49,43,90,83,74,30.06,29.93,7,2,9,0.00
2013-5-18,65,56,51,56,50,45,89,81,69,30.28,30.06,8,2,8,0.00
2013-5-19,67,57,47,52,48,41,87,73,57,30.42,30.28,8,2,9,0.00
2013-5-20,66,56,42,54,47,38,91,73,59,30.36,29.93,10,3,10,0.00
2013-5-21,59,51,46,49,45,40,87,80,68,29.95,29.80,7,2,7,0.00
2013-5-22,63,54,44,55,46,40,89,75,61,29.97,29.85,9,2,10,0.00
2013-5-23,64,53,42,53,45,39,91,73,55,30.01,29.93,13,3,15,0.00
2013-5-24,67,56,45,53,45,39,83,68,53,30.04,29.98,10,3,13,0.00
2013-5-25,67,57,49,53,48,44,85,72,56,30.05,30.01,9,2,9,0.00
2013-5-26,65,56,51,56,50,45,87,81,70,30.02,29.96,7,1,8,0.00
2013-5-27,59,56,49,54,50,45,88,83,76,29.96,29.70,13,4,15,0.00
2013-5-28,64,57,52,56,51,48,90,82,70,29.88,29.74,9,3,11,0.00
2013-5-29,63,55,49,56,49,44,90,82,71,29.96,29.70,6,2,9,0.00
2013-5-30,65,56,45,55,48,41,86,75,60,30.24,29.95,11,2,12,0.00
2013-5-31,70,58,47,55,48,40,87,71,53,30.37,30.23,7,2,9,0.00
2013-6-1,69,58,47,54,48,40,85,70,55,30.28,30.11,6,2,8,0.00
2013-6-2,70,59,50,54,49,43,78,69,56,30.12,30.07,8,3,13,0.00
2013-6-3,72,60,45,57,50,41,88,70,54,30.14,30.07,7,2,9,0.00
2013-6-4,80,64,46,60,51,42,88,65,44,30.16,30.05,8,2,9,0.00
2013-6-5,76,63,51,59,52,44,82,68,54,30.12,30.03,8,2,8,0.00
2013-6-6,77,64,49,62,52,45,88,66,47,30.08,30.01,9,2,10,0.00
2013-6-7,67,59,50,55,49,43,79,70,59,30.14,30.01,15,3,15,0.02
2013-6-8,70,58,46,54,48,41,86,70,53,30.18,30.12,8,2,9,0.00
2013-6-9,70,58,47,55,47,39,86,67,47,30.12,30.04,11,2,11,0.00
2013-6-10,70,58,43,55,46,38,85,65,50,30.05,29.90,10,2,11,0.00
2013-6-11,68,57,49,50,46,42,80,67,51,30.10,29.91,11,2,11,0.01
2013-6-12,69,57,47,54,48,42,87,72,56,30.16,30.10,8,2,12,0.02
2013-6-13,72,61,45,57,49,41,86,66,47,30.20,30.14,8,2,10,0.00
2013-6-14,69,59,49,53,48,43,80,68,55,30.25,30.09,10,3,12,0.00
2013-6-15,74,62,46,60,50,42,86,68,53,30.11,29.96,8,2,10,0.00
2013-6-16,74,63,49,59,51,44,86,66,50,30.09,29.99,9,2,12,0.00
2013-6-17,77,65,54,60,52,46,78,63,52,30.09,29.93,8,3,11,0.12
2013-6-18,73,62,53,57,52,45,86,70,49,29.99,29.92,9,3,9,0.00
2013-6-19,74,62,50,60,50,44,85,65,47,30.00,29.91,8,2,11,0.00
2013-6-20,60,57,53,54,50,46,84,79,64,30.10,29.93,8,2,8,0.32
2013-6-21,70,60,52,57,52,46,88,75,61,30.19,30.09,9,2,9,0.00
2013-6-22,75,63,48,61,52,44,87,68,53,30.14,29.89,13,2,15,0.00
2013-6-23,71,63,56,62,56,48,87,78,71,29.89,29.62,8,2,8,0.05
2013-6-24,69,61,56,60,56,51,90,83,69,29.71,29.57,12,2,12,0.34
2013-6-25,74,64,55,60,55,51,87,75,58,29.83,29.68,12,3,14,0.02
2013-6-26,75,64,57,62,56,52,84,74,59,30.09,29.83,12,3,12,0.02
2013-6-27,73,65,58,63,58,52,88,79,69,30.24,30.06,11,2,11,0.09
2013-6-28,76,66,54,65,59,51,89,77,67,30.23,30.09,6,1,6,0.00
2013-6-29,81,71,59,69,61,52,89,71,57,30.12,30.02,8,2,9,0.20
2013-6-30,85,72,54,67,60,49,87,66,50,30.04,29.90,8,2,8,0.00
2013-7-1,85,72,58,66,58,52,83,64,47,30.03,29.93,11,2,12,0.00
2013-7-2,81,69,56,62,56,48,82,64,47,30.13,30.03,8,2,9,0.00
2013-7-3,77,65,50,61,51,44,86,62,42,30.17,30.05,10,2,10,0.00
2013-7-4,74,64,50,60,52,45,84,66,50,30.12,30.06,10,2,10,0.00
2013-7-5,77,65,48,58,52,43,86,66,52,30.05,29.97,7,2,8,0.00
2013-7-6,80,67,53,61,54,47,83,65,47,30.00,29.88,8,2,8,0.00
2013-7-7,79,66,53,60,54,47,85,65,47,29.96,29.90,7,2,8,0.00
2013-7-8,79,66,52,61,55,48,86,67,51,30.11,29.96,9,3,9,0.00
2013-7-9,82,68,52,62,54,47,86,64,43,30.14,30.00,9,2,11,0.00
2013-7-10,74,63,52,60,51,44,83,64,50,30.04,29.94,10,3,12,0.00
2013-7-11,75,61,50,54,47,41,82,61,43,30.09,29.96,9,3,10,0.00
2013-7-12,73,61,46,57,48,40,84,64,47,30.10,30.02,10,3,10,0.00
2013-7-13,78,64,46,58,49,41,83,60,35,30.22,30.10,8,2,9,0.00
2013-7-14,78,65,48,60,50,42,84,61,33,30.15,30.03,10,2,10,0.00
2013-7-15,78,68,54,59,51,45,81,58,37,30.10,29.94,11,4,11,0.00
2013-7-16,83,72,63,57,52,46,74,51,35,29.95,29.84,15,4,17,0.00
2013-7-17,76,68,58,59,53,46,75,61,51,30.20,29.89,14,4,14,0.00
2013-7-18,79,66,52,60,54,46,82,66,50,30.26,30.15,8,2,8,0.00
2013-7-19,80,66,52,62,55,48,85,68,52,30.19,30.06,8,3,9,0.00
2013-7-20,71,62,52,60,52,47,84,71,59,30.10,29.97,10,2,11,0.00
2013-7-21,75,62,51,60,53,46,86,73,57,30.00,29.93,11,3,11,0.00
2013-7-22,78,64,51,61,54,47,86,72,56,30.08,29.95,10,3,12,0.00
2013-7-23,84,68,52,62,54,47,86,65,42,30.10,30.01,7,2,7,0.00
2013-7-24,82,66,51,60,53,46,85,64,44,30.08,30.02,8,2,9,0.00
2013-7-25,80,65,49,60,52,44,86,66,46,30.13,30.03,9,2,9,0.00
2013-7-26,78,64,50,61,52,44,88,66,46,30.18,30.09,10,2,12,0.00
2013-7-27,78,64,49,59,51,44,87,65,47,30.17,29.99,9,2,9,0.00
2013-7-28,76,64,50,59,52,44,84,67,52,30.01,29.96,9,3,10,0.00
2013-7-29,75,62,51,58,52,46,84,71,54,30.03,29.97,10,3,10,0.00
2013-7-30,73,61,51,58,52,46,86,74,57,30.16,30.02,8,2,10,0.00
2013-7-31,73,62,51,58,53,47,87,73,57,30.13,30.01,10,3,10,0.00
2013-8-1,69,61,53,57,53,47,85,75,63,30.07,30.03,12,3,12,0.00
2013-8-2,66,59,56,60,54,50,87,83,79,30.16,30.04,8,2,9,0.11
2013-8-3,78,65,57,63,56,51,88,76,56,30.16,30.08,7,2,8,0.00
2013-8-4,81,66,52,62,56,48,89,72,52,30.09,29.98,10,2,10,0.00
2013-8-5,81,66,52,62,54,47,90,68,45,30.04,29.95,8,2,8,0.00
2013-8-6,80,64,48,60,52,44,87,68,47,30.01,29.94,8,2,8,0.00
2013-8-7,80,64,51,59,53,46,84,67,47,30.03,29.95,8,2,10,0.00
2013-8-8,80,66,52,61,54,48,87,67,41,30.04,29.94,10,3,10,0.00
2013-8-9,83,66,50,62,54,45,85,66,47,29.98,29.86,8,2,8,0.00
2013-8-10,76,64,56,61,55,49,84,72,56,30.01,29.86,10,3,10,0.02
2013-8-11,72,62,56,58,53,49,84,71,53,30.09,30.01,8,2,11,0.05
2013-8-12,75,63,53,59,54,48,85,72,55,30.10,30.01,9,2,10,0.00
2013-8-13,77,64,51,58,53,47,88,70,51,30.12,29.96,9,2,9,0.00
2013-8-14,77,64,52,62,55,47,87,75,57,29.97,29.93,7,2,8,0.14
2013-8-15,72,64,57,64,59,53,89,84,73,30.02,29.94,5,2,6,0.04
2013-8-16,79,66,53,66,58,50,92,78,60,30.03,29.98,10,2,10,0.01
2013-8-17,76,66,58,63,57,52,84,73,59,30.10,30.00,11,2,11,0.00
2013-8-18,76,65,54,61,55,47,85,71,52,30.15,30.08,8,2,10,0.00
2013-8-19,77,63,51,60,52,45,86,70,52,30.14,30.07,10,2,11,0.00
2013-8-20,74,61,49,58,49,41,87,66,42,30.20,30.11,10,2,11,0.00
2013-8-21,75,62,48,58,50,42,85,66,45,30.12,29.97,10,2,10,0.00
2013-8-22,82,66,49,60,52,42,85,63,44,29.98,29.81,7,2,8,0.00
2013-8-23,75,64,55,58,54,47,87,71,53,29.90,29.82,12,3,13,0.00
2013-8-24,74,64,58,60,55,50,87,73,55,29.93,29.89,11,2,14,0.02
2013-8-25,77,63,51,58,52,46,86,68,49,29.95,29.88,8,2,8,0.00
2013-8-26,76,63,52,58,52,45,80,68,50,29.95,29.85,18,3,18,0.00
2013-8-27,78,66,59,62,57,53,85,72,56,29.95,29.82,10,2,12,0.07
2013-8-28,76,66,59,66,59,54,88,80,67,29.92,29.84,6,2,7,0.13
2013-8-29,69,64,60,67,62,56,95,91,85,29.97,29.86,13,3,15,0.24
2013-8-30,78,65,55,66,58,52,94,79,57,30.18,29.97,8,2,9,0.00
2013-8-31,71,62,55,60,55,50,90,78,61,30.11,29.86,11,2,12,0.00
2013-9-1,77,63,51,62,54,48,90,74,52,29.89,29.81,9,2,10,0.00
2013-9-2,75,65,54,62,56,49,89,74,58,29.94,29.87,7,2,7,0.01
2013-9-3,77,70,63,63,57,52,71,65,60,30.05,29.92,6,2,9,0.29
2013-9-4,81,77,75,64,61,59,60,58,55,30.09,30.03,8,2,9,0.06
2013-9-5,80,79,78,62,61,60,56,55,53,30.07,29.94,12,2,14,0.05
2013-9-6,80,79,77,62,61,60,57,54,52,30.10,29.94,9,2,9,0.03
2013-9-7,78,76,73,61,60,59,62,58,54,30.11,30.05,5,2,5,0.00
2013-9-8,77,74,65,61,59,53,65,59,56,30.12,30.04,6,2,6,0.01
2013-9-9,74,66,58,62,56,50,76,70,65,30.06,30.01,8,2,8,0.00
2013-9-10,74,71,62,62,58,53,72,64,58,30.03,29.92,8,2,8,0.00
2013-9-11,83,77,60,64,60,52,80,56,51,29.98,29.90,11,1,11,0.00
2013-9-12,82,75,68,63,57,51,57,53,45,30.01,29.91,6,1,6,0.00
2013-9-13,72,68,67,58,54,51,66,61,54,29.98,29.88,8,1,8,0.00
2013-9-14,71,65,54,59,54,49,83,68,63,29.90,29.76,6,1,6,0.00
2013-9-15,62,57,53,58,53,49,89,87,83,29.80,29.71,8,2,9,0.15
2013-9-16,65,60,56,61,56,52,92,87,79,29.92,29.79,7,2,8,0.07
2013-9-17,66,58,53,57,52,48,90,82,67,29.92,29.85,7,1,8,0.00
2013-9-18,67,57,50,58,51,46,91,79,64,30.07,29.92,10,2,10,0.03
2013-9-19,70,59,51,55,51,46,88,76,57,30.06,29.75,7,2,7,0.00
2013-9-20,68,57,48,56,50,44,90,77,61,29.75,29.60,6,2,7,0.05
2013-9-21,66,59,54,57,53,50,89,81,69,29.73,29.64,9,2,10,0.01
2013-9-22,59,56,53,55,51,49,89,86,78,29.70,29.50,20,4,24,0.22
2013-9-23,60,54,46,54,49,41,91,85,73,29.95,29.70,8,2,9,0.13
2013-9-24,60,53,45,54,48,41,91,85,76,29.95,29.85,5,1,6,0.22
2013-9-25,59,52,44,51,47,40,90,83,70,30.01,29.87,9,2,9,0.43
2013-9-26,60,51,43,52,46,39,92,83,71,30.13,30.01,8,2,9,0.00
2013-9-27,56,53,47,53,50,44,91,88,86,30.10,29.81,9,3,10,0.23
2013-9-28,58,54,49,56,51,45,92,90,86,29.81,29.29,12,4,16,1.02
2013-9-29,55,52,50,53,49,45,93,88,78,29.49,29.09,24,6,24,0.60
2013-9-30,53,50,46,50,46,43,90,87,80,29.87,29.29,13,4,14,0.45
2013-10-1,56,50,45,49,46,42,91,87,76,30.08,29.87,7,3,10,0.11
2013-10-2,52,50,48,49,47,46,91,89,87,30.19,30.05,6,2,10,0.31
2013-10-3,55,49,41,49,45,39,91,86,78,30.45,30.19,6,2,8,0.00
2013-10-4,58,48,39,52,44,36,94,87,78,30.48,30.35,6,2,7,0.00
2013-10-5,64,55,49,54,49,44,90,81,67,30.37,30.14,4,1,6,0.00
2013-10-6,65,53,44,54,48,41,93,82,65,30.14,29.82,6,2,10,0.01
2013-10-7,59,54,52,52,49,47,89,82,71,29.97,29.84,11,4,15,0.00
2013-10-8,54,51,46,47,45,41,89,80,71,30.10,29.96,6,2,11,0.01
2013-10-9,47,44,40,43,40,37,90,87,83,30.13,30.10,4,2,6,0.00
2013-10-11,55,51,46,50,47,43,92,86,81,30.15,30.08,4,1,5,0.00
2013-10-12,54,49,41,49,45,38,91,87,81,30.22,30.07,5,2,7,0.00
2013-10-13,55,47,40,49,43,38,93,86,75,30.37,30.21,5,2,6,0.00
2013-10-14,54,46,40,49,42,37,93,87,77,30.44,30.36,8,2,10,0.00
2013-10-15,56,48,41,51,44,38,93,88,80,30.39,30.18,6,1,9,0.00
2013-10-16,54,50,42,50,46,39,91,88,83,30.21,30.16,6,2,11,0.00
2013-10-17,54,47,40,49,44,38,93,90,84,30.29,30.20,6,1,9,0.00
2013-10-18,52,48,44,49,46,42,94,91,87,30.27,30.17,7,2,8,0.00
2013-10-19,52,48,46,49,46,44,94,92,88,30.21,30.16,5,2,8,0.00
2013-10-20,52,48,47,49,46,45,92,91,88,30.22,30.17,4,1,6,0.00
2013-10-21,52,48,46,49,46,44,94,92,88,30.19,30.11,6,2,8,0.00
2013-10-22,52,47,42,50,45,40,94,92,89,30.14,30.04,10,2,12,0.00
2013-10-23,56,47,41,52,44,39,94,90,81,30.06,29.99,5,1,8,0.00
2013-10-24,52,45,40,49,43,37,94,92,90,30.10,30.02,5,1,6,0.00
2013-10-25,54,50,47,51,48,44,94,92,86,30.33,30.11,4,2,6,0.00
2013-10-26,54,50,46,50,47,44,93,89,82,30.35,30.18,5,1,5,0.00
2013-10-27,55,51,48,49,46,38,92,83,54,30.19,29.95,10,3,16,0.00
2013-10-28,56,52,46,40,33,27,66,47,38,30.03,29.93,12,5,23,0.00
2013-10-29,52,44,35,41,33,26,82,66,42,30.03,29.94,6,2,10,0.00
2013-10-30,53,46,36,46,41,32,87,81,73,30.12,30.01,6,2,9,0.00
2013-10-31,52,50,48,49,46,43,89,87,79,30.24,30.06,5,2,8,0.00
2013-11-1,53,51,50,50,48,46,90,89,86,30.25,29.80,7,1,9,0.00
2013-11-2,53,47,43,49,44,40,91,89,83,29.85,29.37,13,4,19,0.00
2013-11-3,50,43,34,42,38,31,90,83,73,30.10,29.85,8,2,11,0.00
2013-11-4,46,40,34,42,36,31,93,85,77,30.19,30.04,5,2,11,0.00
2013-11-5,46,43,40,44,40,37,91,89,83,30.25,30.01,6,1,12,0.00
2013-11-6,51,46,39,48,42,37,94,89,81,30.32,29.98,6,2,10,0.00
2013-11-7,51,49,48,48,46,43,90,87,81,29.99,29.65,10,4,19,0.00
2013-11-8,53,48,44,46,43,40,89,84,78,30.14,29.94,10,2,12,0.00
2013-11-9,50,45,40,46,42,38,92,89,84,30.14,30.09,5,1,6,0.00
2013-11-10,48,46,43,44,43,40,92,88,83,30.18,30.12,5,2,7,0.00
2013-11-11,56,50,47,46,42,39,83,74,68,30.16,29.99,5,2,8,0.00
2013-11-12,56,52,46,50,46,42,90,80,66,30.32,29.98,11,3,16,0.00
2013-11-13,55,50,46,49,46,42,92,86,78,30.41,30.30,10,2,12,0.00
2013-11-14,51,46,40,47,43,37,91,87,80,30.30,30.04,5,2,7,0.00
2013-11-15,46,44,40,43,41,37,91,89,84,30.04,29.29,12,4,16,0.00
2013-11-16,48,44,36,41,37,31,86,77,72,29.72,29.34,12,3,19,0.00
2013-11-17,49,44,33,44,39,29,89,85,80,29.88,29.72,8,3,11,0.00
2013-11-18,48,45,44,45,42,41,92,90,87,29.88,29.53,5,1,10,0.00
2013-11-19,44,41,37,42,33,21,93,75,50,30.07,29.56,10,3,14,0.00
2013-11-20,39,32,27,32,26,23,85,78,68,30.51,30.07,6,2,8,0.00
2013-11-21,39,30,25,32,25,22,88,82,73,30.68,30.51,5,2,7,0.00
2013-11-22,41,37,29,35,31,26,87,79,72,30.65,30.45,5,2,8,0.00
2013-11-23,45,39,33,37,34,28,88,81,73,30.45,30.20,5,3,8,0.00
2013-11-24,45,40,36,41,37,33,92,89,86,30.25,30.17,8,3,12,0.00
2013-11-25,46,38,34,43,35,31,93,90,85,30.31,30.24,5,2,6,0.00
2013-11-26,45,38,31,42,36,29,93,90,85,30.26,30.09,5,1,7,0.00
2013-11-27,50,42,36,42,38,33,91,82,72,30.09,29.98,6,2,8,0.00
2013-11-28,50,41,35,45,38,32,92,87,80,30.16,30.02,4,1,5,0.00
2013-11-29,51,47,44,47,44,42,91,89,86,30.32,30.16,5,2,8,0.00
2013-11-30,48,46,45,46,44,43,92,91,90,30.31,30.05,6,2,12,0.00
2013-12-1,52,47,40,48,44,34,93,88,80,30.05,29.73,14,5,18,0.00
2013-12-2,42,38,33,35,30,18,88,76,54,30.12,29.79,17,3,25,0.00
2013-12-3,36,33,31,20,17,15,56,52,49,30.35,30.12,15,6,26,0.00
2013-12-4,35,31,24,17,14,12,61,50,41,30.38,30.32,16,4,21,0.00
2013-12-5,35,28,22,25,18,12,75,69,61,30.34,30.21,5,2,6,0.00
2013-12-6,26,24,21,15,8,4,63,50,43,30.32,30.21,14,6,28,0.00
2013-12-7,27,21,16,8,4,0,69,48,34,30.42,30.30,12,4,25,0.00
2013-12-8,33,25,16,22,16,7,76,69,62,30.56,30.41,5,2,8,0.00
2013-12-9,34,32,27,28,24,20,79,73,71,30.56,30.47,5,2,8,0.00
2013-12-10,38,35,33,32,30,27,83,80,78,30.49,30.43,5,1,8,0.00
2013-12-11,41,34,30,35,30,26,88,83,77,30.43,30.16,4,2,5,0.00
2013-12-12,43,37,30,38,33,26,89,86,79,30.16,30.00,9,2,17,0.00
2013-12-13,46,43,42,44,40,38,92,90,87,30.44,30.13,5,1,8,0.00
2013-12-14,47,45,43,44,43,41,92,90,88,30.44,30.32,6,2,9,0.00
2013-12-15,50,44,35,46,42,32,92,90,87,30.45,30.30,8,3,13,0.00
2013-12-16,46,38,32,44,35,30,93,91,88,30.50,30.28,4,2,6,0.00
2013-12-17,43,39,33,41,37,31,94,92,90,30.28,30.09,6,2,12,0.00
2013-12-18,43,39,33,40,35,24,93,83,60,30.24,30.05,9,2,13,0.00
2013-12-19,37,34,31,28,24,22,81,68,60,30.38,30.20,5,1,9,0.00
2013-12-20,35,34,32,33,30,28,91,88,81,30.20,29.72,8,2,12,0.00
2013-12-21,40,36,33,38,34,30,93,91,90,30.18,29.88,5,1,5,0.00
2013-12-22,44,41,36,43,39,34,93,93,92,30.29,30.16,4,1,5,0.00
2013-12-23,48,44,33,45,40,30,94,89,76,30.51,30.11,10,4,16,0.00
2013-12-24,42,35,31,40,33,29,93,91,89,30.62,30.51,4,2,5,0.00
2013-12-25,42,37,30,40,34,27,94,91,89,30.55,30.40,5,1,6,0.00
2013-12-26,45,39,32,42,36,29,93,89,83,30.41,30.21,4,1,5,0.00
2013-12-27,47,38,31,45,36,29,93,92,90,30.37,30.08,9,2,12,0.00
2013-12-28,44,37,33,42,35,31,94,93,91,30.54,30.36,3,1,4,0.00
2013-12-29,44,39,32,42,37,30,94,92,91,30.49,30.33,4,2,8,0.00
2013-12-30,44,41,38,42,39,36,94,92,91,30.34,30.13,4,1,6,0.00
2013-12-31,45,43,42,44,41,40,93,93,92,30.40,30.18,4,1,6,0.00
2014-1-1,45,42,38,43,40,36,94,93,91,30.43,30.26,4,1,5,0.00
2014-1-2,45,43,40,43,41,36,93,92,80,30.26,29.88,10,2,16,0.00